When you browse on this site, cookies collect data to enhance your experience and personalize the content and advertising you see.
Visit our Privacy Policy to learn more. By continuing to use the site, you agree to this use of cookies and data.
  • In Germany
  • List of Countries
  • For 7 days
  • Water Temperature
  • Weather Map
  • Weather Widgets
  • user-avatar
    Login

    Hourly Weather Hobart

    Today, 1 June, Monday

    Time Temperature Precipitation Wind Pressure Humidity
    00:00 +6°C° 0 mm 2 mps 738 mmHg 79%
    01:00 +6°C° 0 mm 2 mps 737 mmHg 78%
    02:00 +6°C° 0 mm 2 mps 737 mmHg 78%
    03:00 +7°C° 0 mm 2 mps 737 mmHg 78%
    04:00 +7°C° 0 mm 2 mps 737 mmHg 77%
    05:00 +6°C° 0 mm 2 mps 737 mmHg 80%
    06:00 +6°C° 0 mm 2 mps 737 mmHg 83%
    07:00 +6°C° 0 mm 2 mps 737 mmHg 87%
    08:00 +7°C° 0 mm 2 mps 737 mmHg 80%
    09:00 +9°C° 0 mm 2 mps 737 mmHg 73%
    10:00 +12°C° 0 mm 2 mps 738 mmHg 65%
    11:00 +13°C° 0 mm 2 mps 738 mmHg 61%
    12:00 +14°C° 0 mm 1 mps 737 mmHg 58%
    13:00 +15°C° 0 mm 1 mps 737 mmHg 54%
    14:00 +14°C° 0 mm 2 mps 738 mmHg 60%
    15:00 +14°C° 0 mm 2 mps 739 mmHg 65%
    16:00 +12°C° 0 mm 3 mps 739 mmHg 72%
    17:00 +12°C° 0 mm 2 mps 740 mmHg 78%
    18:00 +10°C° 0 mm 2 mps 740 mmHg 84%
    19:00 +9°C° 0 mm 2 mps 741 mmHg 91%
    20:00 +8°C° 0 mm 2 mps 742 mmHg 92%
    21:00 +7°C° 0 mm 2 mps 742 mmHg 93%
    22:00 +7°C° 0 mm 2 mps 743 mmHg 94%
    23:00 +6°C° 0 mm 2 mps 743 mmHg 90%

    Tomorrow, 2 June, Tuesday

    Time Temperature Precipitation Wind Pressure Humidity
    00:00 +5°C° 0 mm 3 mps 743 mmHg 86%
    01:00 +4°C° 0 mm 3 mps 743 mmHg 82%
    02:00 +4°C° 0 mm 3 mps 742 mmHg 83%
    03:00 +4°C° 0 mm 3 mps 742 mmHg 83%
    04:00 +4°C° 0 mm 3 mps 742 mmHg 83%
    05:00 +5°C° 0 mm 3 mps 742 mmHg 84%
    06:00 +5°C° 0 mm 3 mps 742 mmHg 85%
    07:00 +7°C° 0 mm 3 mps 743 mmHg 86%
    08:00 +8°C° 0 mm 3 mps 743 mmHg 81%
    09:00 +10°C° 0 mm 4 mps 743 mmHg 75%
    10:00 +11°C° 0 mm 4 mps 743 mmHg 70%
    11:00 +11°C° 0 mm 4 mps 742 mmHg 70%
    12:00 +12°C° 0 mm 4 mps 742 mmHg 70%
    13:00 +12°C° 0 mm 5 mps 741 mmHg 70%
    14:00 +12°C° 0.1 mm 4 mps 741 mmHg 73%
    15:00 +11°C° 0.1 mm 4 mps 741 mmHg 75%
    16:00 +11°C° 0.1 mm 4 mps 741 mmHg 77%
    17:00 +10°C° 0.1 mm 4 mps 741 mmHg 76%
    18:00 +10°C° 0.1 mm 4 mps 742 mmHg 75%
    19:00 +8°C° 0.1 mm 4 mps 742 mmHg 74%
    20:00 +8°C° 0 mm 4 mps 743 mmHg 75%
    21:00 +7°C° 0 mm 4 mps 743 mmHg 77%
    22:00 +7°C° 0 mm 4 mps 744 mmHg 78%
    23:00 +7°C° 0 mm 5 mps 745 mmHg 77%

    Day after tomorrow, 3 June, Wednesday

    Time Temperature Precipitation Wind Pressure Humidity
    00:00 +7°C° 0 mm 5 mps 745 mmHg 76%
    01:00 +5°C° 0 mm 6 mps 745 mmHg 75%
    02:00 +5°C° 0 mm 6 mps 747 mmHg 76%
    03:00 +5°C° 0 mm 6 mps 748 mmHg 76%
    04:00 +4°C° 0 mm 6 mps 749 mmHg 76%
    05:00 +4°C° 0 mm 6 mps 750 mmHg 78%
    06:00 +3°C° 0 mm 5 mps 751 mmHg 79%
    07:00 +3°C° 0 mm 5 mps 752 mmHg 81%
    08:00 +5°C° 0 mm 5 mps 753 mmHg 75%
    09:00 +6°C° 0 mm 5 mps 754 mmHg 70%
    10:00 +7°C° 0 mm 5 mps 755 mmHg 64%
    11:00 +7°C° 0 mm 5 mps 755 mmHg 61%
    12:00 +7°C° 0 mm 5 mps 756 mmHg 58%
    13:00 +8°C° 0 mm 5 mps 756 mmHg 55%
    14:00 +7°C° 0 mm 4 mps 756 mmHg 57%
    15:00 +7°C° 0 mm 4 mps 757 mmHg 59%
    16:00 +8°C° 0 mm 3 mps 757 mmHg 61%
    17:00 +5°C° 0 mm 3 mps 757 mmHg 66%
    18:00 +4°C° 0 mm 3 mps 758 mmHg 71%
    19:00 +4°C° 0 mm 2 mps 758 mmHg 76%
    20:00 +4°C° 0 mm 2 mps 759 mmHg 78%
    21:00 +3°C° 0 mm 2 mps 759 mmHg 80%
    22:00 +3°C° 0 mm 2 mps 759 mmHg 82%
    23:00 +3°C° 0 mm 2 mps 759 mmHg 83%

    4 June, Thursday

    Time Temperature Precipitation Wind Pressure Humidity
    00:00 +2°C° 0 mm 2 mps 759 mmHg 85%
    01:00 +2°C° 0 mm 2 mps 759 mmHg 87%
    02:00 +2°C° 0 mm 2 mps 759 mmHg 88%
    03:00 +2°C° 0 mm 2 mps 759 mmHg 88%
    04:00 +2°C° 0 mm 2 mps 759 mmHg 89%
    05:00 +2°C° 0 mm 2 mps 759 mmHg 90%
    06:00 +2°C° 0 mm 2 mps 759 mmHg 90%
    07:00 +2°C° 0 mm 2 mps 759 mmHg 90%
    08:00 +3°C° 0 mm 2 mps 759 mmHg 83%
    09:00 +5°C° 0 mm 2 mps 759 mmHg 76%
    10:00 +6°C° 0 mm 2 mps 759 mmHg 68%
    11:00 +8°C° 0 mm 2 mps 758 mmHg 62%
    12:00 +10°C° 0 mm 2 mps 758 mmHg 56%
    13:00 +12°C° 0 mm 1 mps 758 mmHg 49%
    14:00 +12°C° 0 mm 1 mps 757 mmHg 53%
    15:00 +11°C° 0 mm 1 mps 757 mmHg 56%
    16:00 +10°C° 0 mm 1 mps 757 mmHg 60%
    17:00 +9°C° 0 mm 1 mps 757 mmHg 68%
    18:00 +7°C° 0 mm 1 mps 757 mmHg 75%
    19:00 +5°C° 0 mm 2 mps 757 mmHg 82%
    20:00 +5°C° 0 mm 2 mps 756 mmHg 85%
    21:00 +4°C° 0 mm 2 mps 756 mmHg 87%
    22:00 +4°C° 0 mm 2 mps 756 mmHg 89%
    23:00 +4°C° 0 mm 2 mps 756 mmHg 89%

    5 June, Friday

    Time Temperature Precipitation Wind Pressure Humidity
    00:00 +4°C° 0 mm 2 mps 756 mmHg 89%
    01:00 +4°C° 0 mm 2 mps 755 mmHg 89%
    02:00 +5°C° 0 mm 2 mps 755 mmHg 88%
    03:00 +5°C° 0 mm 2 mps 755 mmHg 86%
    04:00 +6°C° 0 mm 2 mps 755 mmHg 84%
    05:00 +6°C° 0 mm 2 mps 755 mmHg 85%
    06:00 +6°C° 0 mm 2 mps 755 mmHg 86%
    07:00 +6°C° 0 mm 2 mps 755 mmHg 86%
    08:00 +7°C° 0 mm 2 mps 755 mmHg 83%
    09:00 +8°C° 0 mm 3 mps 755 mmHg 80%
    10:00 +9°C° 0 mm 3 mps 755 mmHg 77%
    11:00 +10°C° 0 mm 2 mps 755 mmHg 75%
    12:00 +10°C° 0 mm 2 mps 754 mmHg 74%
    13:00 +10°C° 0 mm 2 mps 754 mmHg 73%
    14:00 +10°C° 0 mm 2 mps 754 mmHg 76%
    15:00 +10°C° 0 mm 2 mps 754 mmHg 79%
    16:00 +9°C° 0 mm 2 mps 754 mmHg 81%
    17:00 +10°C° 0 mm 1 mps 754 mmHg 85%
    18:00 +9°C° 0 mm 1 mps 754 mmHg 88%
    19:00 +8°C° 0 mm 1 mps 754 mmHg 91%
    20:00 +8°C° 0.2 mm 1 mps 754 mmHg 92%
    21:00 +8°C° 0.2 mm 1 mps 754 mmHg 93%
    22:00 +7°C° 0.2 mm 0 mps 754 mmHg 93%
    23:00 +7°C° 0.4 mm 0 mps 754 mmHg 93%

    6 June, Saturday

    Time Temperature Precipitation Wind Pressure Humidity
    00:00 +7°C° 0.4 mm 0 mps 754 mmHg 93%
    01:00 +7°C° 0.4 mm 0 mps 754 mmHg 93%
    02:00 +7°C° 0.4 mm 0 mps 754 mmHg 93%
    03:00 +7°C° 0.4 mm 0 mps 754 mmHg 93%
    04:00 +7°C° 0.4 mm 0 mps 753 mmHg 94%
    05:00 +7°C° 0.1 mm 0 mps 753 mmHg 94%
    06:00 +7°C° 0.1 mm 0 mps 754 mmHg 94%
    07:00 +7°C° 0.1 mm 0 mps 754 mmHg 94%
    08:00 +8°C° 0 mm 0 mps 754 mmHg 92%
    09:00 +8°C° 0 mm 0 mps 754 mmHg 90%
    10:00 +9°C° 0 mm 0 mps 753 mmHg 88%
    11:00 +9°C° 0 mm 0 mps 753 mmHg 83%
    12:00 +10°C° 0 mm 0 mps 753 mmHg 77%
    13:00 +11°C° 0 mm 0 mps 753 mmHg 72%
    14:00 +11°C° 0.1 mm 1 mps 752 mmHg 74%
    15:00 +11°C° 0.1 mm 1 mps 752 mmHg 77%
    16:00 +10°C° 0.1 mm 1 mps 752 mmHg 79%
    17:00 +9°C° 0 mm 1 mps 752 mmHg 83%
    18:00 +8°C° 0 mm 1 mps 753 mmHg 86%
    19:00 +6°C° 0 mm 1 mps 753 mmHg 90%
    20:00 +6°C° 0 mm 1 mps 753 mmHg 90%
    21:00 +6°C° 0 mm 1 mps 753 mmHg 91%
    22:00 +5°C° 0 mm 1 mps 753 mmHg 91%
    23:00 +5°C° 0 mm 1 mps 753 mmHg 90%
    Show more